Aérodrome :
LOGIN :

S'inscrire | Disclaimer

   EN    FR    IT 

 










Légende :    VFR   VFR Marginal   IFR   IFR Intensif   IFR Très Intensif
Visi : 
Plafond : 
>= 8 km
>= 3000ft
5 à 8 km
1000 à 3000 ft
1500m à 5 km
500 à 1000 ft
800 à 1500m
200 à 500 ft
< 800m
< 200 ft
Symboles :   Orages  Brouillard  Fortes neiges  Fortes précipitations  Vent > 20 kt
SIGMETs :   Divers  Orages  Givrage  Turbulence  Onde Orograph.  Cendres Volcan.







- Altitude de l'aérodrome : 26 ft
- Code IATA : BIA
- Voir les cartes d'approche


LFKB - Bastia

DERNIER METAR :
  • 181800Z AUTO 25003KT CAVOK 07/01 Q1022 NOSIG

METARs EXPIRÉS :
  • 181730Z AUTO 24001KT CAVOK 07/01 Q1021 NOSIG
  • 181700Z AUTO 24002KT CAVOK 07/01 Q1021 NOSIG
  • 181630Z AUTO 21002KT CAVOK 08/01 Q1021 NOSIG
  • 181600Z AUTO 20002KT CAVOK 09/M02 Q1021 NOSIG
  • 181530Z AUTO VRB01KT CAVOK 09/M02 Q1021 NOSIG

TAF TAF LFKB
Valide du 18 à 15h jusqu'au 19 à 15h UTC


181400Z 1815/1915 14005KT 9999 FEW030 BKN220
BECMG 1818/1820 24006KT
TEMPO 1820/1902 SHRA FEW030TCU BKN050 TX10/1912Z TN04/1906Z
ATIS : +33 4 95 59 19 40
Pas de NOTAMs connus pour ce terrain.



MET'MAP, la Météo Aéronautique d'un coup d'oeil ! - Copyright ORBIFLY Décembre 2007 - Disclaimer

ORBIFLY MET'MAP TEAM :

Programmation & Développement : Alexandra Zaïnal
Conception & Développement : Baudouin d'Aumeries
Co-Programmation & Développement : Marc-Olivier Méhu
Soutien technique & logistique : Manuel Goepfert

Contact : metmap@orbifly.com




SOURCES & CREDITS :

   NOAA